Time,TemperatureF,DewpointF,PressureIn,WindDirection,WindDirectionDegrees,WindSpeedMPH,WindSpeedGustMPH,Humidity,HourlyPrecipIn,Conditions,Clouds,dailyrainin,SoftwareType,DateUTC
2013-01-30 00:03:00,34.4,31.8,30.19,ESE,123,0.0,0.0,90,0.00,,,0.00,Wunderground v.1.15,2013-01-30 05:03:00,
2013-01-30 00:07:00,34.4,31.8,30.19,ESE,123,0.0,0.0,90,0.00,,,0.00,Wunderground v.1.15,2013-01-30 05:07:00,
2013-01-30 00:09:00,34.4,31.8,30.19,ESE,123,0.0,0.0,90,0.00,,,0.00,Wunderground v.1.15,2013-01-30 05:09:00,
2013-01-30 00:15:00,34.4,31.8,30.20,ESE,123,0.0,0.0,90,0.00,,,0.00,Wunderground v.1.15,2013-01-30 05:15:00,
2013-01-30 00:17:00,34.4,31.8,30.19,ESE,123,0.0,0.0,90,0.00,,,0.00,Wunderground v.1.15,2013-01-30 05:17:00,
2013-01-30 00:23:00,34.4,31.8,30.19,ESE,123,0.0,0.0,90,0.00,,,0.00,Wunderground v.1.15,2013-01-30 05:23:00,
2013-01-30 00:29:00,34.4,31.8,30.18,ESE,123,0.0,0.0,90,0.00,,,0.01,Wunderground v.1.15,2013-01-30 05:29:00,
2013-01-30 00:35:00,34.4,31.8,30.18,ESE,123,0.0,0.0,90,0.00,,,0.01,Wunderground v.1.15,2013-01-30 05:35:00,
2013-01-30 00:41:00,34.4,31.8,30.17,ESE,123,0.0,0.0,90,0.00,,,0.01,Wunderground v.1.15,2013-01-30 05:41:00,
2013-01-30 00:47:00,34.4,31.8,30.17,ESE,123,0.0,0.0,90,0.00,,,0.01,Wunderground v.1.15,2013-01-30 05:47:00,
2013-01-30 00:53:00,34.4,31.8,30.17,ESE,123,0.0,0.0,90,0.00,,,0.02,Wunderground v.1.15,2013-01-30 05:53:00,
2013-01-30 00:59:00,34.4,31.8,30.17,ESE,123,0.0,0.0,90,0.00,,,0.02,Wunderground v.1.15,2013-01-30 05:59:00,
2013-01-30 01:07:00,34.4,31.8,30.17,ESE,123,0.0,0.0,90,0.05,,,0.03,Wunderground v.1.15,2013-01-30 06:07:00,
2013-01-30 01:13:00,34.4,31.8,30.17,ESE,123,0.0,0.0,90,0.05,,,0.03,Wunderground v.1.15,2013-01-30 06:13:00,
2013-01-30 01:19:00,34.4,31.8,30.17,ESE,123,0.0,0.0,90,0.04,,,0.03,Wunderground v.1.15,2013-01-30 06:19:00,
2013-01-30 01:25:00,34.4,31.8,30.17,ESE,123,0.0,0.0,90,0.00,,,0.04,Wunderground v.1.15,2013-01-30 06:25:00,
2013-01-30 01:31:00,34.4,31.8,30.17,ESE,123,0.0,0.0,90,0.00,,,0.04,Wunderground v.1.15,2013-01-30 06:31:00,
2013-01-30 01:37:00,34.4,31.8,30.16,ESE,123,0.0,0.0,90,0.00,,,0.04,Wunderground v.1.15,2013-01-30 06:37:00,
2013-01-30 01:43:00,34.4,31.8,30.16,ESE,123,0.0,0.0,90,0.00,,,0.05,Wunderground v.1.15,2013-01-30 06:43:00,
2013-01-30 01:49:00,34.4,31.8,30.17,ESE,123,0.0,0.0,90,0.00,,,0.05,Wunderground v.1.15,2013-01-30 06:49:00,
2013-01-30 01:55:00,34.5,32.1,30.15,ESE,123,0.0,0.0,91,0.05,,,0.06,Wunderground v.1.15,2013-01-30 06:55:00,
2013-01-30 02:01:00,34.5,32.1,30.15,ESE,123,0.0,0.0,91,0.05,,,0.06,Wunderground v.1.15,2013-01-30 07:01:00,
2013-01-30 02:07:00,34.5,32.1,30.15,ESE,123,0.0,0.0,91,0.05,,,0.06,Wunderground v.1.15,2013-01-30 07:07:00,
2013-01-30 02:13:00,34.6,32.2,30.15,ESE,123,0.0,0.0,91,0.00,,,0.06,Wunderground v.1.15,2013-01-30 07:13:00,
2013-01-30 02:19:00,34.7,32.3,30.15,ESE,123,0.0,0.0,91,0.00,,,0.06,Wunderground v.1.15,2013-01-30 07:19:00,
2013-01-30 02:25:00,34.8,32.4,30.15,ESE,123,0.0,0.0,91,0.00,,,0.06,Wunderground v.1.15,2013-01-30 07:25:00,
2013-01-30 02:31:00,34.8,32.4,30.14,ESE,123,0.0,0.0,91,0.00,,,0.06,Wunderground v.1.15,2013-01-30 07:31:00,
2013-01-30 02:37:00,34.8,32.4,30.14,ESE,123,0.0,0.0,91,0.00,,,0.06,Wunderground v.1.15,2013-01-30 07:37:00,
2013-01-30 02:43:00,34.8,32.4,30.12,ESE,123,0.0,0.0,91,0.00,,,0.06,Wunderground v.1.15,2013-01-30 07:43:00,
2013-01-30 02:49:00,34.8,32.4,30.12,ESE,123,0.0,0.0,91,0.00,,,0.06,Wunderground v.1.15,2013-01-30 07:49:00,
2013-01-30 02:55:00,34.7,32.3,30.12,ESE,123,0.0,0.0,91,0.00,,,0.06,Wunderground v.1.15,2013-01-30 07:55:00,
2013-01-30 03:01:00,34.7,32.3,30.11,ESE,123,0.0,0.0,91,0.00,,,0.06,Wunderground v.1.15,2013-01-30 08:01:00,
2013-01-30 03:07:00,34.7,32.3,30.11,ESE,123,0.0,0.0,91,0.00,,,0.06,Wunderground v.1.15,2013-01-30 08:07:00,
2013-01-30 03:13:00,34.7,32.3,30.11,ESE,123,0.0,0.0,91,0.00,,,0.06,Wunderground v.1.15,2013-01-30 08:13:00,
2013-01-30 03:19:00,34.8,32.4,30.10,ESE,123,0.0,0.0,91,0.00,,,0.06,Wunderground v.1.15,2013-01-30 08:19:00,
2013-01-30 03:25:00,34.9,32.5,30.10,ESE,123,0.0,0.0,91,0.00,,,0.06,Wunderground v.1.15,2013-01-30 08:25:00,
2013-01-30 03:31:00,35.0,32.6,30.09,ESE,123,0.0,0.0,91,0.00,,,0.06,Wunderground v.1.15,2013-01-30 08:31:00,
2013-01-30 03:37:00,35.1,32.7,30.09,ESE,123,0.0,0.0,91,0.00,,,0.06,Wunderground v.1.15,2013-01-30 08:37:00,
2013-01-30 03:43:00,35.3,32.9,30.09,ESE,123,0.0,0.0,91,0.00,,,0.06,Wunderground v.1.15,2013-01-30 08:43:00,
2013-01-30 03:49:00,35.7,33.3,30.08,ESE,123,0.0,0.0,91,0.00,,,0.06,Wunderground v.1.15,2013-01-30 08:49:00,
2013-01-30 03:55:00,36.0,33.6,30.07,ESE,123,0.0,0.0,91,0.00,,,0.06,Wunderground v.1.15,2013-01-30 08:55:00,
2013-01-30 04:01:00,36.1,33.7,30.07,ESE,123,0.0,0.0,91,0.00,,,0.06,Wunderground v.1.15,2013-01-30 09:01:00,
2013-01-30 04:07:00,36.3,33.9,30.07,ESE,123,0.0,0.0,91,0.00,,,0.06,Wunderground v.1.15,2013-01-30 09:07:00,
2013-01-30 04:13:00,36.4,34.0,30.08,ESE,123,0.0,0.0,91,0.00,,,0.06,Wunderground v.1.15,2013-01-30 09:13:00,
2013-01-30 04:19:00,36.4,34.0,30.08,ESE,123,0.0,0.0,91,0.00,,,0.06,Wunderground v.1.15,2013-01-30 09:19:00,
2013-01-30 04:25:00,36.4,34.0,30.08,ESE,123,0.0,0.0,91,0.00,,,0.07,Wunderground v.1.15,2013-01-30 09:25:00,
2013-01-30 04:31:00,36.5,34.1,30.08,ESE,123,0.0,0.0,91,0.00,,,0.07,Wunderground v.1.15,2013-01-30 09:31:00,
2013-01-30 04:37:00,36.5,34.1,30.07,ESE,123,0.0,0.0,91,0.00,,,0.07,Wunderground v.1.15,2013-01-30 09:37:00,
2013-01-30 04:43:00,36.6,34.2,30.07,ESE,123,0.0,0.0,91,0.00,,,0.07,Wunderground v.1.15,2013-01-30 09:43:00,
2013-01-30 04:49:00,36.7,34.3,30.06,ESE,123,0.0,0.0,91,0.00,,,0.07,Wunderground v.1.15,2013-01-30 09:49:00,
2013-01-30 04:55:00,36.7,34.3,30.05,ESE,123,0.0,0.0,91,0.00,,,0.07,Wunderground v.1.15,2013-01-30 09:55:00,
2013-01-30 05:01:00,36.9,34.5,30.05,ESE,123,0.0,0.0,91,0.00,,,0.07,Wunderground v.1.15,2013-01-30 10:01:00,
2013-01-30 05:07:00,37.0,34.6,30.05,ESE,123,0.0,0.0,91,0.00,,,0.07,Wunderground v.1.15,2013-01-30 10:07:00,
2013-01-30 05:13:00,37.2,34.8,30.04,ESE,123,0.0,0.0,91,0.00,,,0.07,Wunderground v.1.15,2013-01-30 10:13:00,
2013-01-30 05:19:00,37.4,35.3,30.04,ESE,123,0.0,0.0,92,0.00,,,0.07,Wunderground v.1.15,2013-01-30 10:19:00,
2013-01-30 05:25:00,37.5,35.4,30.04,ESE,105,0.0,0.0,92,0.00,,,0.07,Wunderground v.1.15,2013-01-30 10:25:00,
2013-01-30 05:31:00,37.5,35.4,30.04,ESE,104,0.0,0.0,92,0.00,,,0.07,Wunderground v.1.15,2013-01-30 10:31:00,
2013-01-30 05:37:00,37.6,35.5,30.04,ESE,105,0.0,0.0,92,0.00,,,0.08,Wunderground v.1.15,2013-01-30 10:37:00,
2013-01-30 05:43:00,37.7,35.6,30.04,ESE,104,0.0,0.0,92,0.00,,,0.08,Wunderground v.1.15,2013-01-30 10:43:00,
2013-01-30 05:49:00,37.5,35.4,30.04,ESE,105,0.0,0.0,92,0.00,,,0.08,Wunderground v.1.15,2013-01-30 10:49:00,
2013-01-30 05:55:00,37.6,35.5,30.04,ESE,103,0.0,0.0,92,0.00,,,0.08,Wunderground v.1.15,2013-01-30 10:55:00,
2013-01-30 06:01:00,37.8,35.7,30.04,ESE,105,0.0,0.0,92,0.00,,,0.08,Wunderground v.1.15,2013-01-30 11:01:00,
2013-01-30 06:07:00,37.8,35.7,30.04,ESE,105,0.0,0.0,92,0.00,,,0.08,Wunderground v.1.15,2013-01-30 11:07:00,
2013-01-30 06:13:00,37.8,35.7,30.03,ESE,105,0.0,0.0,92,0.00,,,0.08,Wunderground v.1.15,2013-01-30 11:13:00,
2013-01-30 06:19:00,37.7,35.6,30.03,ESE,105,0.0,0.0,92,0.00,,,0.08,Wunderground v.1.15,2013-01-30 11:19:00,
2013-01-30 06:25:00,37.7,35.6,30.03,ESE,105,0.0,0.0,92,0.00,,,0.08,Wunderground v.1.15,2013-01-30 11:25:00,
2013-01-30 06:31:00,37.7,35.6,30.02,ESE,105,0.0,0.0,92,0.00,,,0.08,Wunderground v.1.15,2013-01-30 11:31:00,
2013-01-30 06:37:00,37.7,35.6,30.02,ESE,105,0.0,0.0,92,0.00,,,0.08,Wunderground v.1.15,2013-01-30 11:37:00,
2013-01-30 06:43:00,37.9,35.8,30.01,ESE,105,0.0,0.0,92,0.00,,,0.08,Wunderground v.1.15,2013-01-30 11:43:00,
2013-01-30 06:49:00,37.8,35.7,30.01,ESE,105,0.0,0.0,92,0.00,,,0.08,Wunderground v.1.15,2013-01-30 11:49:00,
2013-01-30 06:55:00,37.8,35.7,30.00,ESE,105,0.0,0.0,92,0.00,,,0.09,Wunderground v.1.15,2013-01-30 11:55:00,
2013-01-30 07:01:00,37.8,35.7,29.99,ESE,105,0.0,0.0,92,0.00,,,0.09,Wunderground v.1.15,2013-01-30 12:01:00,
2013-01-30 07:07:00,37.9,35.8,29.99,ESE,105,0.0,0.0,92,0.00,,,0.09,Wunderground v.1.15,2013-01-30 12:07:00,
2013-01-30 07:13:00,37.9,35.8,29.99,ESE,105,0.0,0.0,92,0.00,,,0.09,Wunderground v.1.15,2013-01-30 12:13:00,
2013-01-30 07:19:00,37.9,35.8,29.99,ESE,103,0.0,0.0,92,0.00,,,0.09,Wunderground v.1.15,2013-01-30 12:19:00,
2013-01-30 07:25:00,38.0,35.9,29.98,ESE,104,0.0,0.0,92,0.00,,,0.09,Wunderground v.1.15,2013-01-30 12:25:00,
2013-01-30 07:31:00,38.1,36.0,29.98,ESE,105,0.0,0.0,92,0.00,,,0.09,Wunderground v.1.15,2013-01-30 12:31:00,
2013-01-30 07:37:00,38.2,36.1,29.98,ESE,105,0.0,0.0,92,0.00,,,0.09,Wunderground v.1.15,2013-01-30 12:37:00,
2013-01-30 07:43:00,38.4,36.3,29.97,ESE,105,0.0,0.0,92,0.00,,,0.09,Wunderground v.1.15,2013-01-30 12:43:00,
2013-01-30 07:49:00,38.5,36.4,29.97,ESE,105,0.0,0.0,92,0.00,,,0.09,Wunderground v.1.15,2013-01-30 12:49:00,
2013-01-30 07:55:00,38.7,36.6,29.97,ESE,104,0.0,0.0,92,0.00,,,0.09,Wunderground v.1.15,2013-01-30 12:55:00,
2013-01-30 08:01:00,38.7,36.6,29.96,ESE,105,0.0,0.0,92,0.00,,,0.10,Wunderground v.1.15,2013-01-30 13:01:00,
2013-01-30 08:07:00,38.6,36.5,29.95,ESE,105,0.0,0.0,92,0.00,,,0.10,Wunderground v.1.15,2013-01-30 13:07:00,
2013-01-30 08:13:00,38.6,36.5,29.95,ESE,104,0.0,0.0,92,0.00,,,0.10,Wunderground v.1.15,2013-01-30 13:13:00,
2013-01-30 08:19:00,38.7,36.6,29.95,ESE,105,0.0,0.0,92,0.00,,,0.10,Wunderground v.1.15,2013-01-30 13:19:00,
2013-01-30 08:25:00,38.9,36.8,29.94,ESE,105,0.0,0.0,92,0.00,,,0.10,Wunderground v.1.15,2013-01-30 13:25:00,
2013-01-30 08:31:00,39.1,37.0,29.94,ESE,105,0.0,0.0,92,0.00,,,0.10,Wunderground v.1.15,2013-01-30 13:31:00,
2013-01-30 08:37:00,39.5,37.4,29.94,ESE,104,0.0,0.0,92,0.00,,,0.10,Wunderground v.1.15,2013-01-30 13:37:00,
2013-01-30 08:43:00,40.2,38.1,29.93,ESE,104,0.0,0.0,92,0.00,,,0.10,Wunderground v.1.15,2013-01-30 13:43:00,
2013-01-30 08:49:00,40.6,38.5,29.93,ESE,104,0.0,0.0,92,0.00,,,0.10,Wunderground v.1.15,2013-01-30 13:49:00,
2013-01-30 08:55:00,40.9,38.8,29.92,ESE,105,0.0,0.0,92,0.00,,,0.11,Wunderground v.1.15,2013-01-30 13:55:00,
2013-01-30 09:01:00,41.1,39.0,29.93,ESE,104,0.0,0.0,92,0.00,,,0.11,Wunderground v.1.15,2013-01-30 14:01:00,
2013-01-30 09:07:00,42.5,40.6,29.92,ENE,76,0.0,0.0,93,0.00,,,0.11,Wunderground v.1.15,2013-01-30 14:07:00,
2013-01-30 09:13:00,43.1,41.2,29.92,ENE,68,0.0,0.0,93,0.00,,,0.11,Wunderground v.1.15,2013-01-30 14:13:00,
2013-01-30 09:19:00,44.0,42.1,29.92,SE,141,0.0,0.0,93,0.00,,,0.11,Wunderground v.1.15,2013-01-30 14:19:00,
2013-01-30 09:25:00,44.7,42.8,29.92,SE,145,0.0,0.0,93,0.00,,,0.11,Wunderground v.1.15,2013-01-30 14:25:00,
2013-01-30 09:31:00,44.9,43.0,29.91,SE,146,0.0,0.0,93,0.00,,,0.11,Wunderground v.1.15,2013-01-30 14:31:00,
2013-01-30 09:37:00,45.2,43.3,29.90,ENE,65,0.0,0.0,93,0.00,,,0.12,Wunderground v.1.15,2013-01-30 14:37:00,
2013-01-30 09:43:00,45.6,43.7,29.89,ENE,71,0.0,2.0,93,0.00,,,0.12,Wunderground v.1.15,2013-01-30 14:43:00,
2013-01-30 09:49:00,45.9,44.0,29.89,ENE,71,0.0,0.0,93,0.00,,,0.12,Wunderground v.1.15,2013-01-30 14:49:00,
2013-01-30 09:55:00,46.8,44.9,29.89,West,260,0.0,2.0,93,0.00,,,0.12,Wunderground v.1.15,2013-01-30 14:55:00,
2013-01-30 10:01:00,47.5,45.6,29.88,SSE,167,1.0,1.0,93,0.00,,,0.12,Wunderground v.1.15,2013-01-30 15:01:00,
2013-01-30 10:07:00,48.1,46.2,29.88,SSW,193,1.0,2.0,93,0.00,,,0.12,Wunderground v.1.15,2013-01-30 15:07:00,
2013-01-30 10:13:00,48.7,46.8,29.88,SSE,165,1.0,3.0,93,0.00,,,0.13,Wunderground v.1.15,2013-01-30 15:13:00,
2013-01-30 10:19:00,49.2,47.3,29.88,South,169,1.0,1.0,93,0.00,,,0.13,Wunderground v.1.15,2013-01-30 15:19:00,
2013-01-30 10:25:00,49.5,47.6,29.88,SSE,150,1.0,1.0,93,0.00,,,0.13,Wunderground v.1.15,2013-01-30 15:25:00,
2013-01-30 10:31:00,49.7,47.8,29.87,NNW,342,1.0,1.0,93,0.00,,,0.13,Wunderground v.1.15,2013-01-30 15:31:00,
2013-01-30 10:37:00,50.0,48.1,29.87,SW,230,1.0,1.0,93,0.00,,,0.13,Wunderground v.1.15,2013-01-30 15:37:00,
2013-01-30 10:43:00,50.3,48.4,29.86,SSW,209,1.0,2.0,93,0.00,,,0.13,Wunderground v.1.15,2013-01-30 15:43:00,
2013-01-30 10:49:00,50.5,48.6,29.86,SSW,206,1.0,1.0,93,0.00,,,0.13,Wunderground v.1.15,2013-01-30 15:49:00,
2013-01-30 10:55:00,50.8,48.8,29.85,SSE,167,0.0,1.0,93,0.00,,,0.13,Wunderground v.1.15,2013-01-30 15:55:00,
2013-01-30 11:01:00,51.0,49.0,29.84,WNW,290,1.0,3.0,93,0.00,,,0.13,Wunderground v.1.15,2013-01-30 16:01:00,
2013-01-30 11:07:00,51.3,49.3,29.84,West,273,1.0,3.0,93,0.00,,,0.13,Wunderground v.1.15,2013-01-30 16:07:00,
2013-01-30 11:13:00,51.4,49.4,29.83,WSW,257,1.0,3.0,93,0.00,,,0.13,Wunderground v.1.15,2013-01-30 16:13:00,
2013-01-30 11:19:00,51.6,49.6,29.82,West,260,1.0,3.0,93,0.00,,,0.13,Wunderground v.1.15,2013-01-30 16:19:00,
2013-01-30 11:25:00,52.0,50.0,29.81,WSW,242,1.0,3.0,93,0.00,,,0.13,Wunderground v.1.15,2013-01-30 16:25:00,
2013-01-30 11:31:00,52.5,50.5,29.81,SSW,196,1.0,2.0,93,0.00,,,0.13,Wunderground v.1.15,2013-01-30 16:31:00,
2013-01-30 11:37:00,52.8,50.8,29.80,SSE,153,2.0,2.0,93,0.00,,,0.13,Wunderground v.1.15,2013-01-30 16:37:00,
2013-01-30 11:43:00,53.1,51.1,29.80,SE,134,1.0,3.0,93,0.00,,,0.13,Wunderground v.1.15,2013-01-30 16:43:00,
2013-01-30 11:49:00,53.3,51.3,29.79,SSE,149,2.0,2.0,93,0.00,,,0.13,Wunderground v.1.15,2013-01-30 16:49:00,
2013-01-30 11:55:00,53.6,51.6,29.79,SW,223,1.0,6.0,93,0.00,,,0.13,Wunderground v.1.15,2013-01-30 16:55:00,
2013-01-30 12:01:00,53.7,51.7,29.78,SSE,156,1.0,1.0,93,0.00,,,0.13,Wunderground v.1.15,2013-01-30 17:01:00,
2013-01-30 12:07:00,53.8,51.8,29.78,ESE,108,1.0,5.0,93,0.00,,,0.13,Wunderground v.1.15,2013-01-30 17:07:00,
2013-01-30 12:13:00,54.1,52.1,29.77,ESE,114,1.0,3.0,93,0.00,,,0.13,Wunderground v.1.15,2013-01-30 17:13:00,
2013-01-30 12:19:00,54.3,52.3,29.76,South,184,1.0,2.0,93,0.00,,,0.13,Wunderground v.1.15,2013-01-30 17:19:00,
2013-01-30 12:25:00,54.5,52.5,29.76,WSW,244,1.0,2.0,93,0.00,,,0.13,Wunderground v.1.15,2013-01-30 17:25:00,
2013-01-30 12:31:00,54.5,52.5,29.76,WSW,256,1.0,4.0,93,0.00,,,0.13,Wunderground v.1.15,2013-01-30 17:31:00,
2013-01-30 12:37:00,54.5,52.5,29.76,NE,38,1.0,4.0,93,0.00,,,0.13,Wunderground v.1.15,2013-01-30 17:37:00,
2013-01-30 12:43:00,54.7,52.7,29.75,SSW,203,1.0,1.0,93,0.00,,,0.13,Wunderground v.1.15,2013-01-30 17:43:00,
2013-01-30 12:49:00,54.6,52.6,29.75,SE,130,1.0,1.0,93,0.00,,,0.13,Wunderground v.1.15,2013-01-30 17:49:00,
2013-01-30 12:55:00,54.7,52.7,29.74,SW,225,1.0,1.0,93,0.00,,,0.13,Wunderground v.1.15,2013-01-30 17:55:00,
2013-01-30 13:01:00,54.8,52.8,29.74,SSW,199,1.0,1.0,93,0.00,,,0.13,Wunderground v.1.15,2013-01-30 18:01:00,
2013-01-30 13:07:00,55.0,53.0,29.72,East,96,1.0,4.0,93,0.00,,,0.13,Wunderground v.1.15,2013-01-30 18:07:00,
2013-01-30 13:13:00,55.1,53.1,29.71,ESE,119,1.0,2.0,93,0.00,,,0.13,Wunderground v.1.15,2013-01-30 18:13:00,
2013-01-30 13:19:00,55.1,53.1,29.71,SSW,210,1.0,1.0,93,0.00,,,0.13,Wunderground v.1.15,2013-01-30 18:19:00,
2013-01-30 13:25:00,55.1,53.1,29.71,SW,236,1.0,1.0,93,0.00,,,0.13,Wunderground v.1.15,2013-01-30 18:25:00,
2013-01-30 13:31:00,55.2,53.2,29.71,WSW,242,1.0,1.0,93,0.00,,,0.13,Wunderground v.1.15,2013-01-30 18:31:00,
2013-01-30 13:37:00,55.2,53.2,29.71,ESE,113,1.0,3.0,93,0.00,,,0.13,Wunderground v.1.15,2013-01-30 18:37:00,
2013-01-30 13:43:00,55.3,53.3,29.71,South,169,1.0,3.0,93,0.00,,,0.13,Wunderground v.1.15,2013-01-30 18:43:00,
2013-01-30 13:49:00,55.4,53.1,29.70,ESE,113,1.0,4.0,92,0.00,,,0.13,Wunderground v.1.15,2013-01-30 18:49:00,
2013-01-30 13:55:00,55.5,53.2,29.69,ESE,119,2.0,4.0,92,0.00,,,0.13,Wunderground v.1.15,2013-01-30 18:55:00,
2013-01-30 14:01:00,55.7,53.4,29.68,ESE,122,1.0,2.0,92,0.00,,,0.13,Wunderground v.1.15,2013-01-30 19:01:00,
2013-01-30 14:07:00,55.7,53.4,29.69,ESE,122,0.0,2.0,92,0.00,,,0.13,Wunderground v.1.15,2013-01-30 19:07:00,
2013-01-30 14:13:00,55.9,53.6,29.68,SSW,204,1.0,1.0,92,0.00,,,0.13,Wunderground v.1.15,2013-01-30 19:13:00,
2013-01-30 14:19:00,56.1,53.8,29.67,WSW,238,0.0,2.0,92,0.00,,,0.13,Wunderground v.1.15,2013-01-30 19:19:00,
2013-01-30 14:25:00,56.2,53.9,29.67,ENE,61,0.0,2.0,92,0.00,,,0.13,Wunderground v.1.15,2013-01-30 19:25:00,
2013-01-30 14:31:00,56.5,53.9,29.67,WSW,253,1.0,1.0,91,0.00,,,0.13,Wunderground v.1.15,2013-01-30 19:31:00,
2013-01-30 14:37:00,56.6,54.0,29.67,WNW,287,1.0,1.0,91,0.00,,,0.13,Wunderground v.1.15,2013-01-30 19:37:00,
2013-01-30 14:43:00,56.9,54.3,29.67,WNW,283,0.0,1.0,91,0.00,,,0.13,Wunderground v.1.15,2013-01-30 19:43:00,
2013-01-30 14:49:00,57.1,54.5,29.67,WNW,296,1.0,2.0,91,0.00,,,0.13,Wunderground v.1.15,2013-01-30 19:49:00,
2013-01-30 14:55:00,57.6,54.7,29.67,WNW,292,1.0,2.0,90,0.00,,,0.13,Wunderground v.1.15,2013-01-30 19:55:00,
2013-01-30 15:01:00,58.2,55.3,29.66,SSW,209,1.0,1.0,90,0.00,,,0.13,Wunderground v.1.15,2013-01-30 20:01:00,
2013-01-30 15:07:00,58.9,55.7,29.66,South,186,1.0,3.0,89,0.00,,,0.13,Wunderground v.1.15,2013-01-30 20:07:00,
2013-01-30 15:13:00,59.4,55.8,29.65,West,271,1.0,3.0,88,0.00,,,0.13,Wunderground v.1.15,2013-01-30 20:13:00,
2013-01-30 15:19:00,60.2,56.0,29.65,NNE,22,2.0,2.0,86,0.00,,,0.13,Wunderground v.1.15,2013-01-30 20:19:00,
2013-01-30 15:25:00,60.7,55.8,29.65,SW,214,2.0,3.0,84,0.00,,,0.13,Wunderground v.1.15,2013-01-30 20:25:00,
2013-01-30 15:31:00,60.8,55.6,29.65,WNW,284,2.0,2.0,83,0.00,,,0.13,Wunderground v.1.15,2013-01-30 20:31:00,
2013-01-30 15:37:00,60.9,55.7,29.65,SE,146,2.0,4.0,83,0.00,,,0.13,Wunderground v.1.15,2013-01-30 20:37:00,
2013-01-30 15:43:00,60.7,55.5,29.64,SSW,207,2.0,3.0,83,0.00,,,0.13,Wunderground v.1.15,2013-01-30 20:43:00,
2013-01-30 15:49:00,60.6,55.4,29.64,NE,38,2.0,4.0,83,0.00,,,0.13,Wunderground v.1.15,2013-01-30 20:49:00,
2013-01-30 15:55:00,60.4,55.2,29.64,South,188,2.0,5.0,83,0.00,,,0.13,Wunderground v.1.15,2013-01-30 20:55:00,
2013-01-30 16:01:00,60.3,55.4,29.63,South,185,3.0,7.0,84,0.00,,,0.13,Wunderground v.1.15,2013-01-30 21:01:00,
2013-01-30 16:07:00,60.1,55.2,29.64,SW,234,2.0,7.0,84,0.00,,,0.13,Wunderground v.1.15,2013-01-30 21:07:00,
2013-01-30 16:13:00,60.0,55.2,29.64,WNW,284,2.0,3.0,84,0.00,,,0.13,Wunderground v.1.15,2013-01-30 21:13:00,
2013-01-30 16:19:00,59.9,55.1,29.64,South,182,2.0,2.0,84,0.00,,,0.13,Wunderground v.1.15,2013-01-30 21:19:00,
2013-01-30 16:25:00,59.7,54.9,29.65,West,259,1.0,3.0,84,0.00,,,0.13,Wunderground v.1.15,2013-01-30 21:25:00,
2013-01-30 16:31:00,59.6,55.1,29.64,SW,219,2.0,2.0,85,0.00,,,0.13,Wunderground v.1.15,2013-01-30 21:31:00,
2013-01-30 16:37:00,59.7,55.2,29.65,West,268,3.0,9.0,85,0.00,,,0.13,Wunderground v.1.15,2013-01-30 21:37:00,
2013-01-30 16:43:00,59.7,54.9,29.64,South,190,2.0,3.0,84,0.00,,,0.13,Wunderground v.1.15,2013-01-30 21:43:00,
2013-01-30 16:49:00,59.6,55.1,29.65,North,355,1.0,1.0,85,0.00,,,0.13,Wunderground v.1.15,2013-01-30 21:49:00,
2013-01-30 16:55:00,59.7,55.2,29.65,SSW,202,1.0,4.0,85,0.00,,,0.13,Wunderground v.1.15,2013-01-30 21:55:00,
2013-01-30 17:01:00,59.9,55.4,29.65,SW,225,2.0,2.0,85,0.00,,,0.13,Wunderground v.1.15,2013-01-30 22:01:00,
2013-01-30 17:07:00,60.1,55.6,29.65,SW,226,3.0,8.0,85,0.00,,,0.13,Wunderground v.1.15,2013-01-30 22:07:00,
2013-01-30 17:13:00,60.0,55.5,29.65,SE,137,2.0,5.0,85,0.00,,,0.13,Wunderground v.1.15,2013-01-30 22:13:00,
2013-01-30 17:19:00,60.1,55.6,29.65,SSW,199,2.0,3.0,85,0.00,,,0.13,Wunderground v.1.15,2013-01-30 22:19:00,
2013-01-30 17:25:00,60.1,55.6,29.65,West,270,2.0,5.0,85,0.00,,,0.13,Wunderground v.1.15,2013-01-30 22:25:00,
2013-01-30 17:31:00,59.8,55.3,29.64,WSW,237,1.0,2.0,85,0.00,,,0.13,Wunderground v.1.15,2013-01-30 22:31:00,
2013-01-30 17:37:00,60.0,55.5,29.64,SSE,167,2.0,4.0,85,0.00,,,0.13,Wunderground v.1.15,2013-01-30 22:37:00,
2013-01-30 17:43:00,59.9,55.1,29.63,South,187,2.0,3.0,84,0.00,,,0.13,Wunderground v.1.15,2013-01-30 22:43:00,
2013-01-30 17:49:00,60.0,55.2,29.63,South,190,2.0,4.0,84,0.00,,,0.13,Wunderground v.1.15,2013-01-30 22:49:00,
2013-01-30 17:55:00,60.0,55.2,29.63,West,260,3.0,4.0,84,0.00,,,0.13,Wunderground v.1.15,2013-01-30 22:55:00,
2013-01-30 18:01:00,60.1,55.2,29.63,South,180,3.0,4.0,84,0.00,,,0.13,Wunderground v.1.15,2013-01-30 23:01:00,
2013-01-30 18:07:00,60.2,55.3,29.63,SSW,206,2.0,4.0,84,0.00,,,0.13,Wunderground v.1.15,2013-01-30 23:07:00,
2013-01-30 18:13:00,60.2,55.3,29.62,SSE,148,2.0,6.0,84,0.00,,,0.13,Wunderground v.1.15,2013-01-30 23:13:00,
2013-01-30 18:19:00,60.2,55.3,29.63,West,266,2.0,2.0,84,0.00,,,0.13,Wunderground v.1.15,2013-01-30 23:19:00,
2013-01-30 18:25:00,60.2,55.3,29.63,West,281,2.0,5.0,84,0.00,,,0.13,Wunderground v.1.15,2013-01-30 23:25:00,
2013-01-30 18:31:00,60.3,55.4,29.62,SSE,150,2.0,2.0,84,0.00,,,0.13,Wunderground v.1.15,2013-01-30 23:31:00,
2013-01-30 18:37:00,60.2,55.3,29.62,SW,221,2.0,2.0,84,0.00,,,0.13,Wunderground v.1.15,2013-01-30 23:37:00,
2013-01-30 18:43:00,60.3,55.8,29.62,South,179,2.0,3.0,85,0.00,,,0.13,Wunderground v.1.15,2013-01-30 23:43:00,
2013-01-30 18:49:00,60.4,55.5,29.61,West,272,2.0,2.0,84,0.00,,,0.13,Wunderground v.1.15,2013-01-30 23:49:00,
2013-01-30 18:55:00,60.3,55.4,29.60,SSW,210,1.0,4.0,84,0.00,,,0.13,Wunderground v.1.15,2013-01-30 23:55:00,
2013-01-30 19:01:00,60.6,55.7,29.61,SW,224,2.0,6.0,84,0.00,,,0.13,Wunderground v.1.15,2013-01-31 00:01:00,
2013-01-30 19:07:00,60.6,55.7,29.61,East,84,2.0,6.0,84,0.00,,,0.13,Wunderground v.1.15,2013-01-31 00:07:00,
2013-01-30 19:13:00,60.8,55.9,29.60,SSE,161,2.0,4.0,84,0.00,,,0.13,Wunderground v.1.15,2013-01-31 00:13:00,
2013-01-30 19:19:00,60.7,55.5,29.60,South,183,2.0,4.0,83,0.00,,,0.13,Wunderground v.1.15,2013-01-31 00:19:00,
2013-01-30 19:25:00,60.7,55.8,29.60,West,264,1.0,4.0,84,0.00,,,0.13,Wunderground v.1.15,2013-01-31 00:25:00,
2013-01-30 19:31:00,60.7,55.5,29.60,NW,304,1.0,2.0,83,0.00,,,0.13,Wunderground v.1.15,2013-01-31 00:31:00,
2013-01-30 19:37:00,60.8,55.6,29.59,West,259,2.0,2.0,83,0.00,,,0.13,Wunderground v.1.15,2013-01-31 00:37:00,
2013-01-30 19:43:00,60.9,55.7,29.59,SW,218,2.0,5.0,83,0.00,,,0.13,Wunderground v.1.15,2013-01-31 00:43:00,
2013-01-30 19:49:00,60.9,55.7,29.59,SSW,199,2.0,2.0,83,0.00,,,0.13,Wunderground v.1.15,2013-01-31 00:49:00,
2013-01-30 19:55:00,60.9,56.0,29.59,SSE,165,1.0,2.0,84,0.00,,,0.13,Wunderground v.1.15,2013-01-31 00:55:00,
2013-01-30 20:01:00,61.1,55.9,29.58,SSW,200,2.0,3.0,83,0.00,,,0.13,Wunderground v.1.15,2013-01-31 01:01:00,
2013-01-30 20:07:00,61.0,55.8,29.59,South,177,2.0,3.0,83,0.00,,,0.13,Wunderground v.1.15,2013-01-31 01:07:00,
2013-01-30 20:13:00,60.9,56.0,29.58,SE,140,1.0,6.0,84,0.00,,,0.13,Wunderground v.1.15,2013-01-31 01:13:00,
2013-01-30 20:19:00,61.0,56.1,29.58,South,181,2.0,2.0,84,0.00,,,0.13,Wunderground v.1.15,2013-01-31 01:19:00,
2013-01-30 20:25:00,61.2,56.3,29.58,SW,227,2.0,5.0,84,0.00,,,0.13,Wunderground v.1.15,2013-01-31 01:25:00,
2013-01-30 20:31:00,61.2,56.7,29.58,South,179,3.0,3.0,85,0.00,,,0.13,Wunderground v.1.15,2013-01-31 01:31:00,
2013-01-30 20:37:00,60.9,56.4,29.58,SSW,207,3.0,5.0,85,0.00,,,0.13,Wunderground v.1.15,2013-01-31 01:37:00,
2013-01-30 20:43:00,60.8,56.6,29.58,SSE,168,2.0,4.0,86,0.00,,,0.13,Wunderground v.1.15,2013-01-31 01:43:00,
2013-01-30 20:49:00,60.5,56.3,29.57,South,170,3.0,3.0,86,0.00,,,0.13,Wunderground v.1.15,2013-01-31 01:49:00,
2013-01-30 20:55:00,60.4,56.5,29.57,East,101,3.0,5.0,87,0.00,,,0.14,Wunderground v.1.15,2013-01-31 01:55:00,
2013-01-30 21:01:00,60.3,56.4,29.56,South,184,3.0,4.0,87,0.00,,,0.14,Wunderground v.1.15,2013-01-31 02:01:00,
2013-01-30 21:07:00,60.2,56.3,29.56,SSE,160,3.0,4.0,87,0.00,,,0.14,Wunderground v.1.15,2013-01-31 02:07:00,
2013-01-30 21:13:00,60.0,55.8,29.56,SSE,153,2.0,4.0,86,0.00,,,0.14,Wunderground v.1.15,2013-01-31 02:13:00,
2013-01-30 21:19:00,59.9,56.0,29.56,WNW,287,2.0,2.0,87,0.00,,,0.14,Wunderground v.1.15,2013-01-31 02:19:00,
2013-01-30 21:25:00,59.9,56.0,29.55,WNW,284,2.0,3.0,87,0.00,,,0.14,Wunderground v.1.15,2013-01-31 02:25:00,
2013-01-30 21:31:00,60.0,56.1,29.55,WSW,240,3.0,3.0,87,0.00,,,0.14,Wunderground v.1.15,2013-01-31 02:31:00,
2013-01-30 21:37:00,59.9,55.7,29.54,SW,232,3.0,3.0,86,0.00,,,0.14,Wunderground v.1.15,2013-01-31 02:37:00,
2013-01-30 21:43:00,59.8,55.9,29.54,SW,234,3.0,5.0,87,0.00,,,0.14,Wunderground v.1.15,2013-01-31 02:43:00,
2013-01-30 21:49:00,59.8,55.9,29.54,SSW,197,3.0,4.0,87,0.00,,,0.14,Wunderground v.1.15,2013-01-31 02:49:00,
2013-01-30 21:55:00,59.8,55.6,29.54,SSE,161,3.0,5.0,86,0.00,,,0.14,Wunderground v.1.15,2013-01-31 02:55:00,
2013-01-30 22:01:00,59.8,55.6,29.54,SSE,166,3.0,4.0,86,0.00,,,0.14,Wunderground v.1.15,2013-01-31 03:01:00,
2013-01-30 22:07:00,59.9,55.7,29.54,SW,227,3.0,4.0,86,0.00,,,0.14,Wunderground v.1.15,2013-01-31 03:07:00,
2013-01-30 22:13:00,59.8,55.6,29.54,South,186,2.0,3.0,86,0.00,,,0.14,Wunderground v.1.15,2013-01-31 03:13:00,
2013-01-30 22:19:00,59.8,55.6,29.54,South,182,3.0,3.0,86,0.00,,,0.14,Wunderground v.1.15,2013-01-31 03:19:00,
2013-01-30 22:25:00,59.8,55.9,29.54,West,263,3.0,5.0,87,0.00,,,0.14,Wunderground v.1.15,2013-01-31 03:25:00,
2013-01-30 22:31:00,59.6,55.7,29.54,SSW,211,3.0,5.0,87,0.00,,,0.14,Wunderground v.1.15,2013-01-31 03:31:00,
2013-01-30 22:37:00,59.1,55.5,29.54,WNW,290,3.0,5.0,88,0.00,,,0.14,Wunderground v.1.15,2013-01-31 03:37:00,
2013-01-30 22:43:00,59.0,55.4,29.53,SSE,148,2.0,5.0,88,0.00,,,0.14,Wunderground v.1.15,2013-01-31 03:43:00,
2013-01-30 22:49:00,58.9,55.7,29.53,ESE,112,2.0,2.0,89,0.00,,,0.14,Wunderground v.1.15,2013-01-31 03:49:00,
2013-01-30 22:55:00,58.6,55.4,29.52,SW,233,1.0,2.0,89,0.00,,,0.14,Wunderground v.1.15,2013-01-31 03:55:00,
2013-01-30 23:01:00,58.6,55.4,29.52,SSW,201,1.0,1.0,89,0.00,,,0.14,Wunderground v.1.15,2013-01-31 04:01:00,
2013-01-30 23:07:00,58.4,55.5,29.52,WNW,291,2.0,2.0,90,0.00,,,0.15,Wunderground v.1.15,2013-01-31 04:07:00,
2013-01-30 23:13:00,58.2,55.0,29.51,South,179,1.0,1.0,89,0.00,,,0.15,Wunderground v.1.15,2013-01-31 04:13:00,
2013-01-30 23:19:00,58.3,55.4,29.51,East,80,1.0,1.0,90,0.00,,,0.15,Wunderground v.1.15,2013-01-31 04:19:00,
2013-01-30 23:25:00,58.4,55.5,29.50,ESE,123,1.0,3.0,90,0.00,,,0.15,Wunderground v.1.15,2013-01-31 04:25:00,
2013-01-30 23:31:00,58.3,55.4,29.49,SW,229,1.0,5.0,90,0.00,,,0.15,Wunderground v.1.15,2013-01-31 04:31:00,
2013-01-30 23:37:00,58.5,55.6,29.49,NNE,26,2.0,5.0,90,0.00,,,0.15,Wunderground v.1.15,2013-01-31 04:37:00,
2013-01-30 23:43:00,58.6,55.7,29.49,West,264,2.0,4.0,90,0.00,,,0.15,Wunderground v.1.15,2013-01-31 04:43:00,
2013-01-30 23:49:00,59.0,56.1,29.49,West,270,3.0,3.0,90,0.00,,,0.15,Wunderground v.1.15,2013-01-31 04:49:00,
2013-01-30 23:55:00,59.0,56.1,29.48,SSW,206,3.0,3.0,90,0.00,,,0.15,Wunderground v.1.15,2013-01-31 04:55:00,